Regional Weather Roundup
Issued by NWS

Home | Current Version | Previous Version | Text Only | Print | Product List | Glossary On
Versions: 1 2 3 4 5 6 7 8 9 10 11 12 13 14 15 16 17 18 19 20 21 22 23 24 25 26 27 28 29 30 31 32 33 34 35 36 37 38 39 40 41 42 43 44 45 46 47 48 49 50
000
ASUS44 KFWD 051101
RWRTX
NORTH TEXAS HOURLY WEATHER ROUNDUP
NATIONAL WEATHER SERVICE FORT WORTH TX
600 AM CDT SAT SEP 05 2015

NOTE: "FAIR" INDICATES FEW OR NO CLOUDS BELOW 12,000 FEET WITH NO
SIGNIFICANT WEATHER AND/OR OBSTRUCTIONS TO VISIBILITY.

TXZ118-119-051200-
DALLAS/FORT WORTH METROPLEX

CITY           SKY/WX    TMP DP  RH WIND       PRES   REMARKS
DFW AIRPORT    CLEAR     79  72  79 S7        29.97R
DALLAS LOVE    CLEAR     80  72  76 S7        29.97S
FTW MEACHAM    CLEAR     79  72  79 SE6       29.97R
DAL-EXECUTIVE  CLEAR     77  71  82 S5        29.98R
FTW-ALLIANCE   CLEAR     77  72  84 SE6       29.98R
FTW-NAS-JRB    CLEAR     80  72  76 S7        29.98R
ARLINGTON      CLEAR     79  71  76 S6        29.98R
GRAND PRAIRIE  CLEAR     78  73  84 SE6       29.99S
MESQUITE       CLEAR     75  72  89 SE5       29.98S
LANCASTER      CLEAR     76  70  81 S3        29.99S
$$

TXZ091>094-102>105-117-120-121-131>134-051200-
NORTH CENTRAL TEXAS

CITY           SKY/WX    TMP DP  RH WIND       PRES   REMARKS
SHRMAN/DENISON CLEAR     78  73  84 S6        30.00R
BRIDGEPORT     CLEAR     71  70  96 CALM      29.99S
DENTON         CLEAR     78  72  81 SE7       29.98R
MCKINNEY       CLEAR     77  71  82 SE5       29.98R
ROCKWALL       CLEAR     76  73  87 S6        29.98R
TERRELL        CLEAR     75  72  90 S5        29.99R
WAXAHACHIE     CLEAR     75  72  89 SE3       30.00R
$$

TXZ083>090-098>101-113>116-127>130-139>142-154-155-051200-
WESTERN NORTH TEXAS

CITY           SKY/WX    TMP DP  RH WIND       PRES   REMARKS
WICHITA FALLS  CLEAR     73  68  84 SE5       29.96R
WF-KICKAPOO    CLEAR     77  69  74 SE6       29.97R
VERNON         CLEAR     77  62  59 SE6       29.96S
ABILENE        CLEAR     76  68  76 S9        29.99R
ABILENE-DYESS  CLEAR     76  68  77 S12       29.97R
MINERAL WELLS  CLEAR     74  70  87 SE6       29.96R
STEPHENVILLE   CLEAR     74  69  87 S3        30.02R
COMANCHE       CLEAR     74  71  92 SE7       29.99S
$$

TXZ143>147-156>162-174-175-051200-
CENTRAL TEXAS

CITY           SKY/WX    TMP DP  RH WIND       PRES   REMARKS
WACO           CLOUDY    79  74  84 S14       29.98R
WACO-MCGREGOR  MOCLDY    77  74  90 S7        29.99R
CORSICANA      CLEAR     77  73  87 S5        30.00R
MEXIA          PTCLDY    75  73  95 E9G16     29.98S
HEARNE         MOCLDY    75  74  97 CALM      30.00S
TEMPLE         PTCLDY    75  70  83 SE8       29.99R
KILLEEN        CLEAR     74  72  93 S5        29.99R
KILLEEN-SKYLRK CLEAR     75  70  83 SE5       29.99R
FORT HOOD      MOCLDY    76  73  91 SE6       29.98R
HAMILTON       CLOUDY    76  71  82 S7        30.01R
$$

TXZ095>097-106>112-122>126-135>138-148>153-164>167-051200-
EAST TEXAS

CITY           SKY/WX    TMP DP  RH WIND       PRES   REMARKS
PARIS          CLEAR     73  64  73 SE5       30.00S
GILMER         CLEAR     75  72  89 CALM      30.00R
MINEOLA        CLEAR     79  73  83 S3        30.01R
TYLER          PTCLDY    76  72  87 S6        30.00R
LONGVIEW       CLEAR     76  73  91 CALM      30.00R
ATHENS         CLEAR     72  72 100 CALM      29.99R
PALESTINE      CLEAR     75  73  95 CALM      30.01S
JACKSONVILLE   CLEAR     76  73  93 CALM      30.03S
NACOGDOCHES    CLEAR     72  72 100 CALM      30.00S
LUFKIN         CLEAR     72  71  97 CALM      30.00R
$$

SUPPLEMENTAL OBSERVATIONS (CENTRAL)

CITY           SKY/WX    TMP DP  RH WIND       PRES   REMARKS
$$

SUPPLEMENTAL OBSERVATIONS (WEST)

CITY           SKY/WX    TMP DP  RH WIND       PRES   REMARKS
$$

SUPPLEMENTAL OBSERVATIONS (EAST)

CITY           SKY/WX    TMP DP  RH WIND       PRES   REMARKS
$$

SUPPLEMENTAL OBSERVATIONS ARE A COLLECTION OF AUTOMATED INSTRUMENTS
THAT ARE MAINTAINED BY A VARIETY OF FEDERAL AND STATE AGENCIES.
CERTAIN ELEMENTS...SUCH AS HUMIDITY VALUES AND SUSTAINED WIND
SPEEDS...MAY BE APPROXIMATED.



USA.gov is the U.S. government's official web portal to all federal, state and local government web resources and services.